Home
Last Heard
JFindU D-Star Maps
Repeater Directory
D-Star Solutions
Japan D-Star Repeaters
 
ARVN Programimg D-Star Radios Pt 1
(ID-2820)
 
ARVN Programimg D-Star Radios Pt 2
(IC91/92 ID-800)
 
ID-8880H
IC-80AD
IC-2820

Current Time is 08/10/2020 11:23:20 UTC [Click here to disable refresh]
Callsign Time Heard Reporting Node 495 Unique callsigns heard in the last hour
W9JAR 08/10/20 10:48:51 UTC AC9AR B 440 MHz Adams, Wisconsin, USA
LX6ATO 08/10/20 10:25:54 UTC CQ0DCH B 440 MHz DVD Chaves (Leiranco), Portugal
DJ2OT 08/10/20 10:48:16 UTC DB0DJ B 440 MHz Karlsbad, Germany
HS5HBQ 08/10/20 10:34:16 UTC E24DG B 440 MHz Chiangmai, Chiangmai, Thailand
E29IRX 08/10/20 10:37:32 UTC E24DH Dongle User DVD Ranong, Ranong, Thailand
EA4AHF 08/10/20 11:01:59 UTC ED4ZAH B 440 MHz Madrid, Spain
2E0MKP 08/10/20 11:03:29 UTC GB7BP B 440 MHz Bletchley Park, Buckinghamshire, UK
G8VPS 08/10/20 10:29:49 UTC GB7HE B 440 MHz Hastings, East Sussex, UK
M6OFJ 08/10/20 11:20:20 UTC GB7SF C 2 Meters DVD Sheffield, UK
M1ERS 08/10/20 11:04:40 UTC GB7SF C 2 Meters Sheffield, UK
IU3NPY 08/10/20 13:20:20 UTC IR3UEF C 2 Meters Monselice (Padova) , Italy, Italy
IW2CDU 08/10/20 11:21:01 UTC IR3UG C 2 Meters San Mauro delle Saline, Verona, Italy
KE5WEA 08/10/20 11:21:35 UTC K1DRP A 1.2GHz DVD Granbury, TX, USA
N0XIA V 08/10/20 11:15:38 UTC K1XC A 1.2GHz Orlando, FL, USA
N0XIA 08/10/20 11:15:23 UTC K1XC C 2 Meters Orlando, FL, USA
N5JLQ 08/10/20 11:08:40 UTC K5CTX C 2 Meters Temple, TX, USA
KC3CYM 08/10/20 10:56:41 UTC KB3BSA B 440 MHz Warren, PA, USA
W1MRC 08/10/20 11:18:28 UTC KC4GYM B 440 MHz Leesville, SC, USA
N5CWH 08/10/20 10:47:41 UTC KC4GYM C 2 Meters Leesville, SC, USA
KD4KOJ 08/10/20 11:18:56 UTC KJ4LNJ C 2 Meters Beaufort, SC, USA
KG4ERR 08/10/20 11:08:24 UTC KR4AIK C 2 Meters Aiken, SC, USA
KF5BUM 08/10/20 10:33:17 UTC N5MAD C 2 Meters Minden, LA, USA
KD4QKH 08/10/20 11:19:49 UTC NC4BS B 440 MHz Fletcher, NC, USA
GW6YMS 08/10/20 10:28:39 UTC REF001 C 2 Meters DVD USA
G0LEF 08/10/20 10:26:22 UTC REF001 C 2 Meters DVD USA
SV2HQL 08/10/20 10:26:12 UTC REF001 C 2 Meters DVD USA
MW6DQQ 08/10/20 11:12:58 UTC REF001 C 2 Meters DVD USA
G0SMJ 08/10/20 11:05:00 UTC REF001 C 2 Meters DVD USA
N3OUC 08/10/20 10:56:57 UTC REF001 C 2 Meters DVD USA
KC0TJK 08/10/20 11:07:56 UTC REF001 C 2 Meters DVD USA
DL4QB 08/10/20 10:45:46 UTC REF001 C 2 Meters DVD USA
KD4KGN 08/10/20 11:13:28 UTC REF001 C 2 Meters DVD USA
VK3MET 08/10/20 11:18:14 UTC REF001 C 2 Meters DVD USA
VE6RPD 08/10/20 11:12:28 UTC REF001 Dongle User DVD USA
RW5F 08/10/20 10:55:36 UTC REF001 Dongle User DVD USA
N9VW 08/10/20 10:27:53 UTC REF001 Dongle User DVD USA
2W0FFN 08/10/20 10:56:17 UTC REF001 Dongle User DVD USA
N4GYN 08/10/20 10:47:02 UTC REF001 Dongle User DVD USA
K7FLS 08/10/20 10:52:45 UTC REF001 Dongle User DVD USA
KE7EFB 08/10/20 10:25:46 UTC REF001 Dongle User DVD USA
KJ7AGT 08/10/20 10:49:18 UTC REF001 Dongle User DVD USA
2W0PJM 08/10/20 11:14:13 UTC REF001 Dongle User DVD USA
W7IMZ 08/10/20 10:34:06 UTC REF001 Dongle User DVD USA
KC0TJK D 08/10/20 11:04:15 UTC REF001 Dongle User DVD USA
KM6ZED 08/10/20 10:43:05 UTC REF001 Dongle User DVD USA
KA6PRW 08/10/20 10:26:12 UTC REF001 Dongle User DVD USA
WN7T 08/10/20 10:34:56 UTC REF001 Dongle User DVD USA
KD7NHM 08/10/20 10:49:03 UTC REF001 Dongle User DVD USA
XE2GFS 08/10/20 10:30:30 UTC REF001 Dongle User DVD USA
AA6DB 08/10/20 10:53:40 UTC REF001 Dongle User DVD USA
N7NIA 08/10/20 10:30:35 UTC REF001 Dongle User DVD USA
VA7ANT 08/10/20 10:28:04 UTC REF001 Dongle User DVD USA
K0WHW 08/10/20 11:00:43 UTC REF001 Dongle User DVD USA
AI3M 08/10/20 10:26:12 UTC REF001 Dongle User DVD USA
KI6ANR 08/10/20 10:34:36 UTC REF001 Dongle User DVD USA
N7HWM 08/10/20 10:27:33 UTC REF001 Dongle User DVD USA
NY9X 08/10/20 10:52:05 UTC REF001 Dongle User DVD USA
WA6MNV 08/10/20 10:53:20 UTC REF001 Dongle User DVD USA
N7JRJ 08/10/20 10:47:58 UTC REF001 Dongle User DVD USA
DB0HE 08/10/20 10:45:06 UTC REF001 Dongle User DVD USA
NB5M 08/10/20 10:33:26 UTC REF001 Dongle User DVD USA
IU7EPP 08/10/20 11:19:25 UTC REF001 Dongle User DVD USA
CT1ERW 08/10/20 10:35:11 UTC REF001 Dongle User DVD USA
KE6CCC 08/10/20 10:26:22 UTC REF001 Dongle User DVD USA
KB7ULT 08/10/20 10:28:09 UTC REF001 Dongle User DVD USA
W9EO 08/10/20 10:39:08 UTC REF001 Dongle User DVD USA
AE6JQ 08/10/20 11:00:13 UTC REF001 Dongle User DVD USA
JO3XYT 08/10/20 10:25:21 UTC REF001 Dongle User DVD USA
K7EXJ 08/10/20 10:32:50 UTC REF001 Dongle User DVD USA
KI7QDU 08/10/20 10:52:05 UTC REF001 Dongle User DVD USA
AG7DT 08/10/20 10:26:17 UTC REF001 Dongle User DVD USA
G4XTZ 08/10/20 11:05:10 UTC REF001 Dongle User DVD USA
N6RCM 08/10/20 10:48:58 UTC REF001 Dongle User DVD USA
MB6CY 08/10/20 10:24:21 UTC REF001 Dongle User DVD USA
GM0AKJ 08/10/20 10:44:16 UTC REF001 Dongle User DVD USA
VE7AWV 08/10/20 11:00:08 UTC REF001 Dongle User DVD USA
DL5HAS 08/10/20 10:31:50 UTC REF001 Dongle User DVD USA
K7VFO 08/10/20 10:31:10 UTC REF001 Dongle User DVD USA
G4PMZ D 08/10/20 10:37:12 UTC REF001 Dongle User DVD USA
KF7WKV 08/10/20 10:50:29 UTC REF001 Dongle User DVD USA
K6PEP 08/10/20 10:28:03 UTC REF001 Dongle User DVD USA
K7SAK 08/10/20 10:51:49 UTC REF001 Dongle User DVD USA
KC6CQD 08/10/20 10:35:01 UTC REF001 Dongle User DVD USA
KA7ETW 08/10/20 10:26:12 UTC REF001 Dongle User DVD USA
N9PYL 08/10/20 10:31:55 UTC REF001 Dongle User DVD USA
2E1DQR 08/10/20 11:12:23 UTC REF001 Dongle User DVD USA
KN6EVB 08/10/20 10:26:47 UTC REF001 Dongle User DVD USA
W6AKA 08/10/20 10:45:11 UTC REF001 Dongle User DVD USA
W7DTG 08/10/20 10:49:03 UTC REF001 Dongle User DVD USA
KJ4DFP 08/10/20 11:08:36 UTC REF001 Dongle User DVD USA
W6COT 08/10/20 10:27:53 UTC REF001 Dongle User DVD USA
K6EF 08/10/20 10:28:14 UTC REF001 Dongle User DVD USA
MW7TEW 08/10/20 10:46:47 UTC REF001 Dongle User DVD USA
KB7DWO 08/10/20 10:27:53 UTC REF001 Dongle User DVD USA
KE6INZ 08/10/20 10:54:46 UTC REF001 Dongle User DVD USA
VE7LLW 08/10/20 10:28:39 UTC REF001 Dongle User DVD USA
KI5GIE 08/10/20 11:02:44 UTC REF001 Dongle User DVD USA
KB3YUL 08/10/20 10:43:20 UTC REF001 Dongle User DVD USA
VE6MAD 08/10/20 11:19:05 UTC REF001 Dongle User DVD USA
K7MSA 08/10/20 10:29:49 UTC REF001 Dongle User DVD USA
KF5BRU D 08/10/20 11:20:00 UTC REF001 Dongle User DVD USA
KC7LJC 08/10/20 10:59:18 UTC REF001 Dongle User DVD USA
KF6QPC 08/10/20 10:26:52 UTC REF001 Dongle User DVD USA
N3LK 08/10/20 10:52:05 UTC REF001 Dongle User DVD USA
M0FXB 08/10/20 10:24:36 UTC REF001 Dongle User DVD USA
KC6ZTB 08/10/20 10:27:48 UTC REF001 Dongle User DVD USA
KG7KT 08/10/20 10:27:58 UTC REF001 Dongle User DVD USA
KD7TTY 08/10/20 10:43:20 UTC REF001 Dongle User DVD USA
W1RJA 08/10/20 10:26:17 UTC REF001 Dongle User DVD USA
KJ7LRH 08/10/20 10:40:13 UTC REF001 Dongle User DVD USA
N8RC D 08/10/20 10:57:12 UTC REF001 Dongle User DVD USA
VE7JBT 08/10/20 10:26:32 UTC REF001 Dongle User DVD USA
DK1YO 08/10/20 10:46:17 UTC REF001 Dongle User DVD USA
K0DOC 08/10/20 10:44:06 UTC REF001 Dongle User DVD USA
N7PIX 08/10/20 10:46:47 UTC REF001 Dongle User DVD USA
SM6YPE 08/10/20 10:47:07 UTC REF001 Dongle User DVD USA
M0JRU 08/10/20 10:40:33 UTC REF001 Dongle User DVD USA
VE7HJ 08/10/20 10:32:25 UTC REF001 Dongle User DVD USA
N6VIN 08/10/20 10:25:46 UTC REF001 Dongle User DVD USA
WB5LJQ 08/10/20 10:31:55 UTC REF001 Dongle User DVD USA
M3TFM 08/10/20 11:04:45 UTC REF001 Dongle User DVD USA
KC6YIR 08/10/20 10:27:48 UTC REF001 Dongle User DVD USA
N6RXT 08/10/20 10:25:41 UTC REF001 Dongle User DVD USA
K7AEL 08/10/20 10:51:49 UTC REF001 Dongle User DVD USA
AE7K 08/10/20 10:26:17 UTC REF001 Dongle User DVD USA
5Z4XB D 08/10/20 10:40:44 UTC REF001 Dongle User DVD USA
KJ7NYW 08/10/20 10:26:12 UTC REF001 Dongle User DVD USA
K6QL 08/10/20 10:26:12 UTC REF001 Dongle User DVD USA
AA7JM 08/10/20 10:33:56 UTC REF001 Dongle User DVD USA
KI7MOQ 08/10/20 10:41:14 UTC REF001 Dongle User DVD USA
K2BN 08/10/20 10:26:12 UTC REF001 Dongle User DVD USA
KO4EUF 08/10/20 10:58:32 UTC REF001 Dongle User DVD USA
VE7BST 08/10/20 10:36:27 UTC REF001 Dongle User DVD USA
WA9RFT 08/10/20 11:07:06 UTC REF001 Dongle User DVD USA
KJ7ITZ 08/10/20 10:28:04 UTC REF001 Dongle User DVD USA
KD9CJN 08/10/20 10:41:59 UTC REF001 Dongle User DVD USA
AJ6LB 08/10/20 10:33:51 UTC REF001 Dongle User DVD USA
KF6FIR 08/10/20 10:52:35 UTC REF002 Dongle User DVD NE, USA
NN1B 08/10/20 10:48:33 UTC REF002 Dongle User DVD NE, USA
W1GRE 08/10/20 11:14:38 UTC REF004 C 2 Meters DVD US, USA
KB8FBZ 08/10/20 11:03:24 UTC REF004 C 2 Meters DVD US, USA
W5JUD 08/10/20 10:47:42 UTC REF004 D Unknown DVD US, USA
W0MUD 08/10/20 10:46:12 UTC REF004 Dongle User DVD US, USA
N6OBB 08/10/20 10:41:54 UTC REF004 Dongle User DVD US, USA
W4MOX 08/10/20 10:32:55 UTC REF004 Dongle User DVD US, USA
WB3FYV D 08/10/20 11:02:29 UTC REF004 Dongle User DVD US, USA
KI7BLX 08/10/20 10:51:34 UTC REF004 Dongle User DVD US, USA
KD2AOY 08/10/20 10:52:20 UTC REF004 Dongle User DVD US, USA
AE5PL 08/10/20 11:09:31 UTC REF004 Dongle User DVD US, USA
KD5GLX 08/10/20 11:05:00 UTC REF004 Dongle User DVD US, USA
W3YD 08/10/20 11:16:19 UTC REF004 Dongle User DVD US, USA
N5VV 08/10/20 11:04:05 UTC REF004 Dongle User DVD US, USA
W7JWC 08/10/20 10:54:41 UTC REF008 Dongle User DVD Japan
KF7GLE 08/10/20 10:49:33 UTC REF009 Dongle User DVD AZ, USA
N7EH 08/10/20 10:28:03 UTC REF009 Dongle User DVD AZ, USA
WF7D 08/10/20 10:26:22 UTC REF009 Dongle User DVD AZ, USA
KE9ER 08/10/20 11:00:43 UTC REF009 Dongle User DVD AZ, USA
KF0LF 08/10/20 10:26:17 UTC REF009 Dongle User DVD AZ, USA
KE7EJF 08/10/20 10:46:37 UTC REF009 Dongle User DVD AZ, USA
AL7MH 08/10/20 10:27:58 UTC REF009 Dongle User DVD AZ, USA
N0DAJ 08/10/20 11:00:18 UTC REF009 Dongle User DVD AZ, USA
KY7K 08/10/20 10:29:39 UTC REF009 Dongle User DVD AZ, USA
AF6VH 08/10/20 10:30:55 UTC REF012 Dongle User DVD CA, USA
N6MY 08/10/20 10:48:58 UTC REF012 Dongle User DVD CA, USA
KE6QQQ 08/10/20 11:16:09 UTC REF012 Dongle User DVD CA, USA
K7CFO 08/10/20 10:43:45 UTC REF012 Dongle User DVD CA, USA
N1AB 08/10/20 10:43:20 UTC REF012 Dongle User DVD CA, USA
K9TAD 08/10/20 10:26:12 UTC REF012 Dongle User DVD CA, USA
KB6TWT 08/10/20 10:51:54 UTC REF012 Dongle User DVD CA, USA
KM6TRZ 08/10/20 10:30:50 UTC REF012 Dongle User DVD CA, USA
W6FX 08/10/20 10:27:43 UTC REF012 Dongle User DVD CA, USA
N6UTD 08/10/20 10:34:21 UTC REF012 Dongle User DVD CA, USA
KD6CWI 08/10/20 11:01:14 UTC REF012 Dongle User DVD CA, USA
KK6TND 08/10/20 11:00:48 UTC REF012 Dongle User DVD CA, USA
KC6N 08/10/20 10:28:03 UTC REF012 Dongle User DVD CA, USA
KN6FZS 08/10/20 10:50:34 UTC REF012 Dongle User DVD CA, USA
KM6PJC 08/10/20 10:26:22 UTC REF012 Dongle User DVD CA, USA
KX9KX 08/10/20 11:06:10 UTC REF012 Dongle User DVD CA, USA
KJ7ALP 08/10/20 10:26:01 UTC REF012 Dongle User DVD CA, USA
AA6RA 08/10/20 10:59:33 UTC REF012 Dongle User DVD CA, USA
KK6EWB 08/10/20 11:11:22 UTC REF012 Dongle User DVD CA, USA
KE6IGZ 08/10/20 10:25:41 UTC REF012 Dongle User DVD CA, USA
KI6SOP 08/10/20 10:45:01 UTC REF012 Dongle User DVD CA, USA
KK6MYS 08/10/20 10:26:12 UTC REF012 Dongle User DVD CA, USA
KC6FEW 08/10/20 10:28:04 UTC REF012 Dongle User DVD CA, USA
KK6DJC 08/10/20 10:38:43 UTC REF012 Dongle User DVD CA, USA
WU1Q 08/10/20 11:07:01 UTC REF014 C 2 Meters DVD NV, USA
N6CMB 08/10/20 10:34:01 UTC REF014 Dongle User DVD NV, USA
KK6LIY 08/10/20 10:49:18 UTC REF014 Dongle User DVD NV, USA
KD6MDV 08/10/20 10:51:59 UTC REF014 Dongle User DVD NV, USA
KX7PDX 08/10/20 10:56:22 UTC REF014 Dongle User DVD NV, USA
WU1Q D 08/10/20 11:06:51 UTC REF014 Dongle User DVD NV, USA
N6YSK 08/10/20 10:26:12 UTC REF014 Dongle User DVD NV, USA
W6PD 08/10/20 10:26:27 UTC REF014 Dongle User DVD NV, USA
KN6JCS 08/10/20 10:27:53 UTC REF014 Dongle User DVD NV, USA
KI6WJ 08/10/20 10:35:31 UTC REF014 Dongle User DVD NV, USA
KC7IYU 08/10/20 10:39:28 UTC REF014 Dongle User DVD NV, USA
WA6L 08/10/20 10:28:03 UTC REF014 Dongle User DVD NV, USA
KC7CM 08/10/20 10:45:21 UTC REF014 Dongle User DVD NV, USA
AA6RS 08/10/20 10:39:08 UTC REF014 Dongle User DVD NV, USA
KM6RKK 08/10/20 10:45:31 UTC REF014 Dongle User DVD NV, USA
W6DAS 08/10/20 11:00:18 UTC REF014 Dongle User DVD NV, USA
AI6K 08/10/20 10:28:04 UTC REF014 Dongle User DVD NV, USA
G1UYZ D 08/10/20 11:21:36 UTC REF014 Dongle User DVD NV, USA
KF7GCT 08/10/20 10:53:56 UTC REF014 Dongle User DVD NV, USA
K7RTX 08/10/20 10:27:53 UTC REF014 Dongle User DVD NV, USA
WQ7W 08/10/20 10:36:32 UTC REF014 Dongle User DVD NV, USA
KI6SZE 08/10/20 10:27:58 UTC REF014 Dongle User DVD NV, USA
VE7TMC 08/10/20 10:55:41 UTC REF014 Dongle User DVD NV, USA
N0CSM 08/10/20 10:31:25 UTC REF014 Dongle User DVD NV, USA
N6CYP 08/10/20 10:27:58 UTC REF014 Dongle User DVD NV, USA
N6TSR 08/10/20 10:37:42 UTC REF014 Dongle User DVD NV, USA
KG7ODB 08/10/20 10:48:43 UTC REF014 Dongle User DVD NV, USA
N1PJP 08/10/20 11:01:59 UTC REF014 Dongle User DVD NV, USA
K6CES 08/10/20 10:27:48 UTC REF014 Dongle User DVD NV, USA
N1YZO D 08/10/20 10:57:02 UTC REF016 Dongle User DVD British Columbia, Canada
VE7AA 08/10/20 10:41:34 UTC REF016 Dongle User DVD British Columbia, Canada
VE7LO 08/10/20 10:27:53 UTC REF016 Dongle User DVD British Columbia, Canada
VA7AXS 08/10/20 10:27:43 UTC REF016 Dongle User DVD British Columbia, Canada
VE7FU 08/10/20 10:45:06 UTC REF016 Dongle User DVD British Columbia, Canada
VE7QJ 08/10/20 10:27:53 UTC REF016 Dongle User DVD British Columbia, Canada
VE7WGJ 08/10/20 10:27:58 UTC REF016 Dongle User DVD British Columbia, Canada
VE7MA 08/10/20 10:26:07 UTC REF016 Dongle User DVD British Columbia, Canada
ZS6MAW 08/10/20 10:34:31 UTC REF017 Dongle User DVD Amsterdam, The Netherlands
ON3CAI 08/10/20 10:35:26 UTC REF017 Dongle User DVD Amsterdam, The Netherlands
PU2LRZ 08/10/20 10:55:06 UTC REF018 B 440 MHz DVD REF018, REF018, Brazil
PY3KZ 08/10/20 10:41:29 UTC REF018 B 440 MHz DVD REF018, REF018, Brazil
PU4DBS 08/10/20 11:03:34 UTC REF018 B 440 MHz DVD REF018, REF018, Brazil
PY3TV 08/10/20 11:21:36 UTC REF018 B 440 MHz DVD REF018, REF018, Brazil
PY3WB 08/10/20 11:21:26 UTC REF018 B 440 MHz DVD REF018, REF018, Brazil
PY2KCA 08/10/20 10:43:45 UTC REF018 Dongle User DVD REF018, REF018, Brazil
PU1PCL 08/10/20 11:19:20 UTC REF018 Dongle User DVD REF018, REF018, Brazil
PT2VHF 08/10/20 10:26:52 UTC REF018 Dongle User DVD REF018, REF018, Brazil
KG9B 08/10/20 10:39:18 UTC REF019 Dongle User DVD WI, USA
WI6X 08/10/20 10:25:51 UTC REF019 Dongle User DVD WI, USA
K2OZ 08/10/20 10:45:21 UTC REF020 A 1.2GHz DVD NJ, USA
KB3LVB 08/10/20 10:58:37 UTC REF020 Dongle User DVD NJ, USA
VK3GY 08/10/20 11:14:18 UTC REF023 Dongle User DVD Adelaide, Australia
WA8E 08/10/20 11:18:25 UTC REF024 C 2 Meters DVD Owosso, MI, USA
KC8LDN 08/10/20 11:20:50 UTC REF024 C 2 Meters DVD Owosso, MI, USA
N8GL 08/10/20 10:50:24 UTC REF024 Dongle User DVD Owosso, MI, USA
N6JET 08/10/20 10:38:58 UTC REF024 Dongle User DVD Owosso, MI, USA
K8OMS 08/10/20 11:00:08 UTC REF024 Dongle User DVD Owosso, MI, USA
KC8VAB 08/10/20 11:19:05 UTC REF024 Dongle User DVD Owosso, MI, USA
N0ABC D 08/10/20 11:14:23 UTC REF025 Dongle User DVD Washington D.C., WA, USA
K1RR 08/10/20 10:26:17 UTC REF029 Dongle User DVD UT, USA
W4LKS 08/10/20 10:38:33 UTC REF029 Dongle User DVD UT, USA
W0CLF 08/10/20 10:26:32 UTC REF029 Dongle User DVD UT, USA
WA7BFN 08/10/20 10:26:07 UTC REF029 Dongle User DVD UT, USA
WA7VFQ 08/10/20 10:38:28 UTC REF029 Dongle User DVD UT, USA
KA7FVV 08/10/20 10:43:00 UTC REF029 Dongle User DVD UT, USA
W7SSK 08/10/20 10:37:02 UTC REF029 Dongle User DVD UT, USA
KB7ZEN 08/10/20 10:32:10 UTC REF029 Dongle User DVD UT, USA
KS5B 08/10/20 10:50:24 UTC REF029 Dongle User DVD UT, USA
W7CDP 08/10/20 10:26:12 UTC REF029 Dongle User DVD UT, USA
N7PS 08/10/20 10:25:46 UTC REF029 Dongle User DVD UT, USA
K7WTW 08/10/20 10:55:31 UTC REF029 Dongle User DVD UT, USA
KF7NOD 08/10/20 10:26:27 UTC REF029 Dongle User DVD UT, USA
W7EFS 08/10/20 10:27:58 UTC REF029 Dongle User DVD UT, USA
AB6MB 08/10/20 10:40:28 UTC REF029 Dongle User DVD UT, USA
K7OZK 08/10/20 10:36:52 UTC REF029 Dongle User DVD UT, USA
WA7WWW 08/10/20 10:28:04 UTC REF029 Dongle User DVD UT, USA
K7NCN 08/10/20 10:55:41 UTC REF029 Dongle User DVD UT, USA
KD7AAT 08/10/20 10:27:53 UTC REF029 Dongle User DVD UT, USA
K2AMF D 08/10/20 10:42:55 UTC REF029 Dongle User DVD UT, USA
K7LW 08/10/20 10:31:45 UTC REF029 Dongle User DVD UT, USA
K7HRT 08/10/20 10:26:32 UTC REF029 Dongle User DVD UT, USA
N7GWK 08/10/20 10:27:58 UTC REF029 Dongle User DVD UT, USA
KG7HZT 08/10/20 10:41:24 UTC REF029 Dongle User DVD UT, USA
K4TEF 08/10/20 10:58:37 UTC REF030 C 2 Meters DVD Lawrenceville, GA, USA
2E0DOB 08/10/20 10:56:57 UTC REF030 C 2 Meters DVD Lawrenceville, GA, USA
W2UIS 08/10/20 11:10:02 UTC REF030 C 2 Meters DVD Lawrenceville, GA, USA
M0AUT 08/10/20 11:07:31 UTC REF030 C 2 Meters DVD Lawrenceville, GA, USA
W3EME 08/10/20 10:48:58 UTC REF030 C 2 Meters DVD Lawrenceville, GA, USA
KO4DVR 08/10/20 11:15:54 UTC REF030 C 2 Meters DVD Lawrenceville, GA, USA
M3VDH 08/10/20 10:48:33 UTC REF030 C 2 Meters DVD Lawrenceville, GA, USA
2M0FYG 08/10/20 11:15:14 UTC REF030 C 2 Meters DVD Lawrenceville, GA, USA
VA3XDB 08/10/20 11:19:25 UTC REF030 C 2 Meters DVD Lawrenceville, GA, USA
WA8YXM 08/10/20 10:51:29 UTC REF030 C 2 Meters DVD Lawrenceville, GA, USA
KF7HB 08/10/20 10:32:05 UTC REF030 Dongle User DVD Lawrenceville, GA, USA
N7HUV 08/10/20 10:25:46 UTC REF030 Dongle User DVD Lawrenceville, GA, USA
K9SAH 08/10/20 11:13:28 UTC REF030 Dongle User DVD Lawrenceville, GA, USA
AB9SG 08/10/20 11:01:19 UTC REF030 Dongle User DVD Lawrenceville, GA, USA
K0DAJ D 08/10/20 11:00:43 UTC REF030 Dongle User DVD Lawrenceville, GA, USA
KC0IEB 08/10/20 11:03:04 UTC REF030 Dongle User DVD Lawrenceville, GA, USA
GB7GD 08/10/20 11:14:48 UTC REF030 Dongle User DVD Lawrenceville, GA, USA
G0PVR 08/10/20 11:02:19 UTC REF030 Dongle User DVD Lawrenceville, GA, USA
K6TJO 08/10/20 10:40:59 UTC REF030 Dongle User DVD Lawrenceville, GA, USA
WD8KPZ 08/10/20 10:53:30 UTC REF030 Dongle User DVD Lawrenceville, GA, USA
N4SVD 08/10/20 10:35:16 UTC REF030 Dongle User DVD Lawrenceville, GA, USA
KD4CMK 08/10/20 10:41:49 UTC REF030 Dongle User DVD Lawrenceville, GA, USA
IR2UED 08/10/20 11:12:43 UTC REF030 Dongle User DVD Lawrenceville, GA, USA
K7TVV 08/10/20 10:53:10 UTC REF030 Dongle User DVD Lawrenceville, GA, USA
G0PWX 08/10/20 10:31:25 UTC REF030 Dongle User DVD Lawrenceville, GA, USA
W6EP 08/10/20 10:40:33 UTC REF030 Dongle User DVD Lawrenceville, GA, USA
N1LCP 08/10/20 10:33:21 UTC REF030 Dongle User DVD Lawrenceville, GA, USA
WA6N 08/10/20 10:43:40 UTC REF030 Dongle User DVD Lawrenceville, GA, USA
V44KM 08/10/20 10:57:17 UTC REF030 Dongle User DVD Lawrenceville, GA, USA
N6DVZ 08/10/20 10:39:03 UTC REF030 Dongle User DVD Lawrenceville, GA, USA
KF7HP 08/10/20 10:50:49 UTC REF030 Dongle User DVD Lawrenceville, GA, USA
MB6BA 08/10/20 10:48:58 UTC REF030 Dongle User DVD Lawrenceville, GA, USA
AK4EM 08/10/20 10:40:03 UTC REF030 Dongle User DVD Lawrenceville, GA, USA
KN4TIM D 08/10/20 11:23:01 UTC REF030 Dongle User DVD Lawrenceville, GA, USA
N6EFD 08/10/20 10:40:08 UTC REF030 Dongle User DVD Lawrenceville, GA, USA
K7XCB 08/10/20 10:42:45 UTC REF030 Dongle User DVD Lawrenceville, GA, USA
N1TOQ 08/10/20 11:16:59 UTC REF030 Dongle User DVD Lawrenceville, GA, USA
W1CDO 08/10/20 10:41:39 UTC REF030 Dongle User DVD Lawrenceville, GA, USA
KJ4HTC 08/10/20 11:21:31 UTC REF030 Dongle User DVD Lawrenceville, GA, USA
KD6DWX 08/10/20 10:25:46 UTC REF030 Dongle User DVD Lawrenceville, GA, USA
WB6NNC D 08/10/20 10:24:46 UTC REF030 Dongle User DVD Lawrenceville, GA, USA
KI7AZG 08/10/20 10:42:04 UTC REF030 Dongle User DVD Lawrenceville, GA, USA
KC5KKI 08/10/20 10:59:43 UTC REF030 Dongle User DVD Lawrenceville, GA, USA
WO6T 08/10/20 10:59:33 UTC REF030 Dongle User DVD Lawrenceville, GA, USA
K6IPE 08/10/20 10:33:51 UTC REF030 Dongle User DVD Lawrenceville, GA, USA
KC0CAT 08/10/20 10:27:43 UTC REF030 Dongle User DVD Lawrenceville, GA, USA
KJ7BFC 08/10/20 10:46:12 UTC REF030 Dongle User DVD Lawrenceville, GA, USA
WN9A 08/10/20 10:26:37 UTC REF030 Dongle User DVD Lawrenceville, GA, USA
M3VDH D 08/10/20 10:27:28 UTC REF030 Dongle User DVD Lawrenceville, GA, USA
WX0STC 08/10/20 11:16:24 UTC REF030 Dongle User DVD Lawrenceville, GA, USA
K5RUP D 08/10/20 11:09:01 UTC REF030 Dongle User DVD Lawrenceville, GA, USA
KF6MZK 08/10/20 10:26:12 UTC REF030 Dongle User DVD Lawrenceville, GA, USA
KJ7IOI 08/10/20 10:46:37 UTC REF030 Dongle User DVD Lawrenceville, GA, USA
HB9TIM D 08/10/20 10:32:10 UTC REF030 Dongle User DVD Lawrenceville, GA, USA
K7UDA 08/10/20 10:52:05 UTC REF030 Dongle User DVD Lawrenceville, GA, USA
2E0PSV 08/10/20 11:01:59 UTC REF030 Dongle User DVD Lawrenceville, GA, USA
W7NP 08/10/20 10:28:09 UTC REF030 Dongle User DVD Lawrenceville, GA, USA
KI7ZKZ 08/10/20 10:51:09 UTC REF030 Dongle User DVD Lawrenceville, GA, USA
W4MHI 08/10/20 11:12:43 UTC REF030 Dongle User DVD Lawrenceville, GA, USA
KI7SI 08/10/20 10:53:30 UTC REF030 Dongle User DVD Lawrenceville, GA, USA
VE7GOY 08/10/20 10:54:21 UTC REF030 Dongle User DVD Lawrenceville, GA, USA
N1MXB D 08/10/20 11:16:09 UTC REF030 Dongle User DVD Lawrenceville, GA, USA
AB7RU 08/10/20 10:53:40 UTC REF030 Dongle User DVD Lawrenceville, GA, USA
KB7SAT 08/10/20 10:28:03 UTC REF030 Dongle User DVD Lawrenceville, GA, USA
KF5BRU 08/10/20 11:04:10 UTC REF030 Dongle User DVD Lawrenceville, GA, USA
VK3VDP D 08/10/20 11:19:00 UTC REF030 Dongle User DVD Lawrenceville, GA, USA
KI7WGV 08/10/20 11:09:21 UTC REF030 Dongle User DVD Lawrenceville, GA, USA
AA4GA 08/10/20 11:08:46 UTC REF030 Dongle User DVD Lawrenceville, GA, USA
M0AUT D 08/10/20 11:04:50 UTC REF030 Dongle User DVD Lawrenceville, GA, USA
N6LZ 08/10/20 10:39:28 UTC REF030 Dongle User DVD Lawrenceville, GA, USA
W6OSC 08/10/20 10:49:08 UTC REF030 Dongle User DVD Lawrenceville, GA, USA
N9LXP D 08/10/20 11:00:18 UTC REF030 Dongle User DVD Lawrenceville, GA, USA
N7MHB 08/10/20 10:42:45 UTC REF030 Dongle User DVD Lawrenceville, GA, USA
W4RFA 08/10/20 11:02:59 UTC REF030 Dongle User DVD Lawrenceville, GA, USA
KE6IYD 08/10/20 11:04:05 UTC REF030 Dongle User DVD Lawrenceville, GA, USA
KM6JQF 08/10/20 10:38:12 UTC REF030 Dongle User DVD Lawrenceville, GA, USA
N5NRU 08/10/20 10:39:23 UTC REF030 Dongle User DVD Lawrenceville, GA, USA
KD5HLW 08/10/20 10:38:02 UTC REF030 Dongle User DVD Lawrenceville, GA, USA
KI7OFK 08/10/20 10:27:13 UTC REF030 Dongle User DVD Lawrenceville, GA, USA
KO4XJ 08/10/20 10:48:38 UTC REF030 Dongle User DVD Lawrenceville, GA, USA
WA3YUC D 08/10/20 10:29:34 UTC REF030 Dongle User DVD Lawrenceville, GA, USA
KE5ILU 08/10/20 11:16:39 UTC REF030 Dongle User DVD Lawrenceville, GA, USA
K4WCR 08/10/20 10:26:01 UTC REF030 Dongle User DVD Lawrenceville, GA, USA
MI0IKF 08/10/20 11:16:04 UTC REF030 Dongle User DVD Lawrenceville, GA, USA
G0ATV 08/10/20 11:21:46 UTC REF030 Dongle User DVD Lawrenceville, GA, USA
K6JP 08/10/20 10:26:17 UTC REF030 Dongle User DVD Lawrenceville, GA, USA
N1XIO D 08/10/20 11:05:45 UTC REF030 Dongle User DVD Lawrenceville, GA, USA
N5BAU 08/10/20 11:03:14 UTC REF030 Dongle User DVD Lawrenceville, GA, USA
KD6QFO 08/10/20 10:28:04 UTC REF030 Dongle User DVD Lawrenceville, GA, USA
NR6J 08/10/20 10:26:06 UTC REF030 Dongle User DVD Lawrenceville, GA, USA
N6DME D 08/10/20 11:16:54 UTC REF030 Dongle User DVD Lawrenceville, GA, USA
KI7OOR 08/10/20 10:26:32 UTC REF030 Dongle User DVD Lawrenceville, GA, USA
N8PDX 08/10/20 10:40:54 UTC REF030 Dongle User DVD Lawrenceville, GA, USA
ZL2FY D 08/10/20 10:52:40 UTC REF030 Dongle User DVD Lawrenceville, GA, USA
VK4MAO 08/10/20 11:21:21 UTC REF032 A 1.2GHz DVD Radom, Poland
SQ7RN 08/10/20 11:22:11 UTC REF032 A 1.2GHz DVD Radom, Poland
SQ7TCW 08/10/20 10:44:16 UTC REF032 A 1.2GHz DVD Radom, Poland
M0HHP 08/10/20 10:41:54 UTC REF032 Dongle User DVD Radom, Poland
SP1JT 08/10/20 11:14:54 UTC REF032 Dongle User DVD Radom, Poland
SR6A 08/10/20 10:59:18 UTC REF032 Dongle User DVD Radom, Poland
SP2PA 08/10/20 10:44:00 UTC REF032 Dongle User DVD Radom, Poland
LA4DSA 08/10/20 10:39:03 UTC REF032 Dongle User DVD Radom, Poland
SQ3OPL 08/10/20 10:41:34 UTC REF032 Dongle User DVD Radom, Poland
KC1GEG 08/10/20 10:53:30 UTC REF032 Dongle User DVD Radom, Poland
SQ9NKU 08/10/20 10:33:56 UTC REF032 Dongle User DVD Radom, Poland
SP1DOZ 08/10/20 11:11:42 UTC REF032 Dongle User DVD Radom, Poland
VK4RDW 08/10/20 11:08:51 UTC REF032 Dongle User DVD Radom, Poland
SQ9MDK 08/10/20 10:53:20 UTC REF032 Dongle User DVD Radom, Poland
KJ4CX 08/10/20 10:51:29 UTC REF037 C 2 Meters DVD Orlando, FL, USA
AF4JC 08/10/20 10:26:12 UTC REF037 Dongle User DVD Orlando, FL, USA
JL3ZDF D 08/10/20 10:49:13 UTC REF047 Dongle User DVD Nowhere, In the Cloud, over the 47 Prefectures, Japan
KG5YFS 08/10/20 11:08:16 UTC REF048 Dongle User DVD Bossier City, LA, USA
W1DLZ 08/10/20 10:45:06 UTC REF050 C 2 Meters DVD Boston, MA, USA
KC1BNE 08/10/20 11:18:04 UTC REF050 Dongle User DVD Boston, MA, USA
WY1Z 08/10/20 10:39:43 UTC REF050 Dongle User DVD Boston, MA, USA
KI5DLL 08/10/20 11:15:19 UTC REF051 A 1.2GHz DVD Unknown
KD9MZ 08/10/20 10:30:20 UTC REF051 C 2 Meters DVD Unknown
N3SBP 08/10/20 10:31:05 UTC REF053 D Unknown DVD Minneapolis, MN, USA
W1AFV B 08/10/20 11:03:55 UTC REF053 Dongle User DVD Minneapolis, MN, USA
KI4FRJ 08/10/20 10:53:20 UTC REF056 B 440 MHz DVD Richmond, KY, USA
KI7NPR 08/10/20 10:51:24 UTC REF056 Dongle User DVD Richmond, KY, USA
NN4H D 08/10/20 10:55:51 UTC REF056 Dongle User DVD Richmond, KY, USA
W4WSM 08/10/20 11:18:30 UTC REF056 Dongle User DVD Richmond, KY, USA
NN4H 08/10/20 10:54:21 UTC REF056 Dongle User DVD Richmond, KY, USA
NA4MM D 08/10/20 10:41:19 UTC REF058 Dongle User DVD Auburn, AL, USA
KK4QXJ 08/10/20 11:22:26 UTC REF058 Dongle User DVD Auburn, AL, USA
KE4GAQ 08/10/20 11:21:31 UTC REF059 Dongle User DVD Unknown
N8AJ D 08/10/20 11:05:05 UTC REF061 Dongle User DVD Unknown
N1IG 08/10/20 10:38:28 UTC REF062 C 2 Meters DVD Hunt Valley, MD, USA
KB3EOF 08/10/20 10:44:41 UTC REF062 Dongle User DVD Hunt Valley, MD, USA
KE2N 08/10/20 11:02:44 UTC REF062 Dongle User DVD Hunt Valley, MD, USA
AA3BR D 08/10/20 10:36:42 UTC REF062 Dongle User DVD Hunt Valley, MD, USA
K3MI D 08/10/20 10:38:17 UTC REF063 Dongle User DVD Pittsburgh, PA, USA
KB3RTH 08/10/20 11:11:32 UTC REF063 Dongle User DVD Pittsburgh, PA, USA
WD4KAV 08/10/20 10:43:15 UTC REF066 Dongle User DVD Elk City, OK, USA
KN4VIK 08/10/20 10:26:27 UTC REF066 Dongle User DVD Elk City, OK, USA
IW8RVX 08/10/20 10:38:28 UTC REF068 B 440 MHz DVD Milan, Lombardy, Italy
IK8WCL 08/10/20 10:51:54 UTC REF068 B 440 MHz DVD Milan, Lombardy, Italy
IZ1LBN P 08/10/20 10:52:35 UTC REF068 B 440 MHz DVD Milan, Lombardy, Italy
KE1DX 08/10/20 10:25:26 UTC REF069 Dongle User DVD CT, USA
AD6NH 08/10/20 10:27:23 UTC REF070 Dongle User DVD Unknown
KC4VFZ 08/10/20 10:28:03 UTC REF070 Dongle User DVD Unknown
KI6EYP 08/10/20 10:27:07 UTC REF070 Dongle User DVD Unknown
JR2MOK 08/10/20 11:04:20 UTC REF071 Dongle User DVD Yanai, Yamaguchi, Japan
JE9HXD 08/10/20 10:38:07 UTC REF071 Dongle User DVD Yanai, Yamaguchi, Japan
EA3IR 08/10/20 10:59:48 UTC REF075 B 440 MHz DVD Europe, Spain, Spain
EA7JBK 08/10/20 11:13:58 UTC REF075 B 440 MHz DVD Europe, Spain, Spain
EA4EZW 08/10/20 10:46:52 UTC REF075 B 440 MHz DVD Europe, Spain, Spain
EB3DMZ 08/10/20 11:13:03 UTC REF075 Dongle User DVD Europe, Spain, Spain
EA7JTR 08/10/20 10:53:50 UTC REF075 Dongle User DVD Europe, Spain, Spain
EA7JIP 08/10/20 10:54:46 UTC REF075 Dongle User DVD Europe, Spain, Spain
EA8EE 08/10/20 10:53:51 UTC REF075 Dongle User DVD Europe, Spain, Spain
EA1IVQ 08/10/20 10:53:51 UTC REF075 Dongle User DVD Europe, Spain, Spain
EI4IYB D 08/10/20 11:16:39 UTC REF077 Dongle User DVD Unknown
KG5JPJ 08/10/20 10:41:09 UTC REF077 Dongle User DVD Unknown
GW3ATZ 08/10/20 10:45:51 UTC REF079 D Unknown DVD Unknown
VE7QJD 08/10/20 10:27:48 UTC REF079 Dongle User DVD Unknown
G4RHD 08/10/20 11:21:31 UTC REF079 Dongle User DVD Unknown
IZ7ZIT 08/10/20 10:31:15 UTC REF080 Dongle User DVD Italy
IN3AVB 08/10/20 10:28:34 UTC REF080 Dongle User DVD Italy
IW8FCL 08/10/20 11:19:10 UTC REF080 Dongle User DVD Italy
JN6IFE 08/10/20 10:41:49 UTC REF081 C 2 Meters DVD Unknown
DS5LWL 08/10/20 11:02:39 UTC REF082 C 2 Meters DVD Unknown
DS5LKI 08/10/20 10:56:57 UTC REF082 C 2 Meters DVD Unknown
HL2LMH 08/10/20 11:02:49 UTC REF082 C 2 Meters DVD Unknown
6K5EAQ 08/10/20 11:08:51 UTC REF082 Dongle User DVD Unknown
6M0TV 08/10/20 10:58:52 UTC REF082 Dongle User DVD Unknown
HL2IPB 08/10/20 11:02:24 UTC REF082 Dongle User DVD Unknown
F1SJR 08/10/20 11:21:36 UTC REF084 B 440 MHz DVD Unknown
F5SHD 08/10/20 11:20:45 UTC REF084 B 440 MHz DVD Unknown
F4DKF 08/10/20 11:13:33 UTC REF084 C 2 Meters DVD Unknown
F5HFA 08/10/20 11:19:50 UTC REF084 C 2 Meters DVD Unknown
F5PP 08/10/20 11:04:20 UTC REF084 C 2 Meters DVD Unknown
F6JIG 08/10/20 11:04:45 UTC REF084 C 2 Meters DVD Unknown
F5RVI 08/10/20 11:17:09 UTC REF084 Dongle User DVD Unknown
F5IBM 08/10/20 11:18:19 UTC REF084 Dongle User DVD Unknown
HS1EQF 08/10/20 10:57:52 UTC REF087 C 2 Meters DVD Thailand
E25IZJ 08/10/20 10:59:58 UTC REF087 C 2 Meters DVD Thailand
HS1RVK 08/10/20 10:30:50 UTC REF087 C 2 Meters DVD Thailand
HS2BJE 08/10/20 10:55:51 UTC REF087 C 2 Meters DVD Thailand
HS5GLD 08/10/20 10:46:47 UTC REF087 C 2 Meters DVD Thailand
E23PKK 08/10/20 10:47:42 UTC REF087 C 2 Meters DVD Thailand
E25JHX 08/10/20 10:56:52 UTC REF087 Dongle User DVD Thailand
E29MSK 08/10/20 10:45:31 UTC REF087 Dongle User DVD Thailand
E27GAQ 08/10/20 10:45:36 UTC REF087 Dongle User DVD Thailand
HS3QGB 08/10/20 11:00:48 UTC REF087 Dongle User DVD Thailand
HS6LWV 08/10/20 10:37:47 UTC REF087 Dongle User DVD Thailand
E22ZZR 08/10/20 10:41:09 UTC REF087 Dongle User DVD Thailand
HS2XBB 08/10/20 10:36:17 UTC REF087 Dongle User DVD Thailand
E24YPM 08/10/20 11:20:50 UTC REF087 Dongle User DVD Thailand
E29HX 08/10/20 11:06:10 UTC REF087 Dongle User DVD Thailand
AB9RO 08/10/20 10:54:36 UTC REF087 Dongle User DVD Thailand
HS0BYW 08/10/20 11:15:54 UTC REF087 Dongle User DVD Thailand
HS6HJP 08/10/20 10:42:25 UTC REF087 Dongle User DVD Thailand
K7UWQ 08/10/20 10:26:07 UTC REF087 Dongle User DVD Thailand
HS1JHG 08/10/20 10:39:08 UTC REF087 Dongle User DVD Thailand
HS8TFX 08/10/20 11:20:50 UTC REF087 Dongle User DVD Thailand
K6NR 08/10/20 10:32:10 UTC REF088 Dongle User DVD Laguna Niguel, CA, USA
WA6ED 08/10/20 11:00:38 UTC REF088 Dongle User DVD Laguna Niguel, CA, USA
AB6CP 08/10/20 10:36:47 UTC REF088 Dongle User DVD Laguna Niguel, CA, USA
KI5IZL 08/10/20 10:42:14 UTC REF089 Dongle User DVD Michigan, USA
N8ELZ 08/10/20 11:22:41 UTC REF089 Dongle User DVD Michigan, USA
KB6RRX 08/10/20 11:21:36 UTC REF090 A 1.2GHz DVD Unknown
KM4STL 08/10/20 11:20:40 UTC REF090 A 1.2GHz DVD Unknown
EA7KDO 08/10/20 11:15:29 UTC REF090 B 440 MHz DVD Unknown
K4DKK 08/10/20 10:41:24 UTC REF090 B 440 MHz DVD Unknown
K4XRC 08/10/20 11:17:29 UTC REF090 D Unknown DVD Unknown
KM4STL D 08/10/20 10:59:48 UTC REF090 Dongle User DVD Unknown
VK4SIR P 08/10/20 10:43:45 UTC REF091 C 2 Meters DVD Unknown
VK7AE 08/10/20 11:17:39 UTC REF091 Dongle User DVD Unknown
VE3DKX 08/10/20 10:27:17 UTC VE3YYZ B 440 MHz Toronto, Ontario, Canada
KF0TW 08/10/20 11:03:37 UTC W0CMD B 440 MHz Rolla, Missouri, USA
KN4SJC 08/10/20 11:17:11 UTC W3DHS C 2 Meters DVD Towson, MD, USA
N4OZE 08/10/20 11:15:18 UTC W4AES B 440 MHz Orlando, FL, USA
KN4ZGO 08/10/20 11:02:01 UTC W4AES B 440 MHz Orlando, FL, USA
KI4LTK 08/10/20 10:53:10 UTC W4HHH B 440 MHz DVD Ellijay, GA, USA
N5LAB 08/10/20 11:22:00 UTC W4LEE C 2 Meters Opelika, AL, USA
KD5EOC O 08/10/20 11:22:39 UTC W5NGU A 1.2GHz Denton, TX, USA
KB5ZZB 08/10/20 10:47:28 UTC W5SSV B 440 MHz NEDERLAND, TX, USA
N5KJJ 08/10/20 10:41:58 UTC W5SSV B 440 MHz NEDERLAND, TX, USA
W8RDX 08/10/20 10:59:14 UTC W8DF C 2 Meters Battle Creek, MI, USA
KN4SKF 08/10/20 10:57:02 UTC W8DF C 2 Meters DVD Battle Creek, MI, USA
N5MKY 08/10/20 10:55:55 UTC W8DF C 2 Meters Battle Creek, MI, USA
K4CPJ 08/10/20 11:18:46 UTC WA4TCD C 2 Meters Vero Beach, Fl, USA
N7MJL 08/10/20 10:46:27 UTC WA7DR Dongle User DVD Graham, WA, USA
ZL3TOY 08/10/20 11:07:21 UTC ZL3CHD B 440 MHz Christchurch, New Zealand

© Copyright D-StarUsers.org, All Rights Reserved.
Last Heard and DStarMonitor Disclaimer